Flag for Canada Weather past 2 weeks in Fort St. John, British Columbia, Canada

37 °F


Feels Like: 31 °F
Forecast: 13 / 24 °F
Wind: 8 mph from West

Location: Fort St John

Current Time: Nov 29, 2015 at 12:55:34 PM

Latest Report: Nov 29, 2015 at 12:00 PM

Visibility: 15 mi

Pressure: 30.07 "Hg (27.61 "Hg at 689m altitude)

Humidity: 28%

Dew point: 7 °F

Location of Fort St. JohnLocation

Historic Weather in Fort St. John — Graph


Fort St. John temperature yesterday

Maximum temperature yesterday: 43 °F (at 2:00 PM)
Minimum temperature yesterday: 28 °F (at 1:00 AM)
Average temperature yesterday: 35 °F

Past Weeks' High & Low Weather Summary

High43 °F (Nov 28, 2:00 PM)93% (Nov 16, 6:00 PM)30.53 "Hg (Nov 16, 6:00 PM)
Low0 °F (Nov 19, 9:00 AM)28% (Nov 27, 12:00 PM)29.17 "Hg (Nov 17, 1:00 AM)
Average21 °F65%30.04 "Hg
* Reported Nov 14 11:00 AM — Nov 29 11:00 AM, Fort St. John, Weather by CustomWeather, © 2015

Note: Actual official high and low records may vary slightly from our data, if they occured in-between our weather recording intervals... More about our weather records


Fort St. John weather history for previous 24 hours

Time TempWeatherWind HumidityBarometerVisibility
11:00 AM
Sun, Nov 29
36 °FSunny.9 mph30%30.09 "Hg15 mi
10:00 AM34 °FClear.13 mph29%30.10 "Hg15 mi
9:00 AM32 °FPassing clouds.15 mph32%30.10 "Hg15 mi
8:00 AM32 °FPassing clouds.12 mph32%30.11 "Hg15 mi
7:00 AM28 °FPassing clouds.13 mph40%30.11 "Hg15 mi
6:00 AM28 °FPassing clouds.10 mph37%30.13 "Hg15 mi
5:00 AM32 °FPassing clouds.12 mph32%30.13 "Hg15 mi
4:00 AM30 °FPassing clouds.13 mph37%30.13 "Hg15 mi
3:00 AM32 °FPassing clouds.3 mph34%30.13 "Hg15 mi
2:00 AM32 °FPassing clouds.9 mph34%30.12 "Hg15 mi
1:00 AM34 °FPassing clouds.14 mph35%30.11 "Hg15 mi
12:00 AM34 °FPassing clouds.10 mph35%30.12 "Hg15 mi
11:00 PM
Sat, Nov 28
36 °FPassing clouds.16 mph32%30.12 "Hg15 mi
10:00 PM36 °FPassing clouds.12 mph35%30.14 "Hg15 mi
9:00 PM36 °FPassing clouds.12 mph32%30.14 "Hg15 mi
8:00 PM37 °FPassing clouds.14 mph33%30.14 "Hg15 mi
7:00 PM37 °FPassing clouds.14 mph33%30.15 "Hg15 mi
6:00 PM36 °FPassing clouds.14 mph35%30.16 "Hg15 mi
5:00 PM34 °FScattered clouds.3 mph38%30.18 "Hg15 mi
4:00 PM39 °FBroken clouds.9 mph33%30.16 "Hg15 mi
3:00 PM43 °FPartly sunny.10 mph29%30.15 "Hg15 mi
2:00 PM43 °FPartly sunny.7 mph29%30.17 "Hg15 mi
1:00 PM41 °FPartly sunny.9 mph28%30.19 "Hg15 mi
12:00 PM39 °FPartly sunny.12 mph30%30.20 "Hg15 mi
Weather by CustomWeather, © 2015

See weather overviewHow to use our weather pages